OBJECT L, 63992

Orbit data source: Space-Track

You're viewing an Uncataloged Satellite

Recently launched and/or uncataloged satellites may have evolving metadata. Metadata may include but not limited to: Owner, Maufacturer, Bus, Motor, and Mission.

OBJECT L, 63992 is a Chinese satellite in SSO that was launched on Wed, 14 May 2025 UTC via a CHANG ZHENG 2D launch vehicle from the Jiuquan Satellite Launch Center, China (JSC). Unknown objects in Earth's orbit typically refer to objects detected orbiting the Earth but have not yet been identified or cataloged. These objects could be anything from previously untracked satellites, spent rocket stages, debris from satellite collisions, or even natural meteoroids temporarily captured by Earth's gravity.

Loading next visibility...
Identifier
63992, 2025-100L
Orbit
SSO
Last TLE update
8 hours ago
Origin
Flag of CNCN / PRC
Manufacturer
Unknown
Mission
Operational Commercial Technology
Bus & Motor
Unknown
Mass
Unknown
Launch date (UTC)
2025-05-14 (3 months ago)
Launch vehicle
CHANG ZHENG 2D
Launch site
Jiuquan Satellite Launch Center, China (JSC)
Object type
Unknown
Shape & HBR
Box + 2 Pan, 0.1 m
Radar Cross Section
0.135 m², Medium (>0.1 m² and < 1m²)

Expand to show TLE details & history

TLE from 8 hours ago
0 OBJECT L
1 63992U 25100L   25211.18966222  .00016865  00000-0  75327-3 0  9997
2 63992  97.4032 285.5452 0012137   6.2473 353.8911 15.21355019 11670
Epoch: 2025-07-30T04:33Z
TLE epoch observation values (Epoch: 2025-07-30T04:33:06.815Z)
Latitude
-0.00014°
Longitude
-90.80563°
Altitude
496.54 km
Speed
7.621 km/s
True Right ascension
19h 02m 10s
True Declination
0° 00' 00"
Sunlit
Object was in full shadow at epoch
Visualization orbit readout
Latitude
82.07832°
Longitude
157.76001°
Altitude
514.928 km
Speed
7.613 km/s
Apparent Right ascension
13h 58m 18s
Apparent Declination
25° 51' 18"
Sunlit
Object is in daylight
Visualization observer readout
Local Sidereal Time
02:24:14
Azimuth
6.381° NNE
Elevation
-23.952°
Doppler factor
1
Orbital elements
Apogee altitude
507.063 km
Perigee altitude
490.37 km
Semi-major axis
6,876.853 km
Eccentricity
0.00121
Inclination
97.4032°
RAAN
285.5452°
Arg. of periapsis
6.2473°
True anomaly
353.87628°
Mean anomaly
353.8911°
Eccentric anomaly
353.88369°
Mean motion
3.80591 °/min
Orbital period
94.59 mins
BSTAR
0.00075327
Loading maneuver chart data...
Loading SW <> Apogee altitude chart data...
Loading historical data...
Loading historical data...
Loading historical data...
Loading historical data...
Loading historical data...
Loading historical data...
Loading historical data...
|